TimeMST,TemperatureF,Dew PointF,Humidity,Sea Level PressureIn,VisibilityMPH,Wind Direction,Wind SpeedMPH,Gust SpeedMPH,PrecipitationIn,Events,Conditions,WindDirDegrees,DateUTC
12:15 AM,17.6,12.2,79,30.41,10.0,East,4.6,-,N/A,,Unknown,90,2013-02-16 07:15:00
12:55 AM,15.8,10.4,79,30.41,10.0,East,4.6,-,N/A,,Unknown,90,2013-02-16 07:55:00
1:15 AM,15.8,10.4,79,30.42,10.0,East,5.8,-,N/A,,Unknown,100,2013-02-16 08:15:00
1:35 AM,14.0,10.4,86,30.42,10.0,ESE,6.9,-,N/A,,Unknown,110,2013-02-16 08:35:00
1:55 AM,14.0,10.4,86,30.41,10.0,East,6.9,-,N/A,,Unknown,90,2013-02-16 08:55:00
2:35 AM,12.2,10.4,92,30.41,10.0,East,4.6,-,N/A,,Unknown,100,2013-02-16 09:35:00
2:55 AM,14.0,10.4,86,30.42,10.0,Calm,Calm,-,N/A,,Unknown,0,2013-02-16 09:55:00
4:15 AM,12.2,8.6,85,30.41,10.0,East,5.8,-,N/A,,Unknown,90,2013-02-16 11:15:00
4:35 AM,10.4,8.6,92,30.40,10.0,Calm,Calm,-,N/A,,Unknown,0,2013-02-16 11:35:00
4:55 AM,10.4,6.8,85,30.40,10.0,East,3.5,-,N/A,,Unknown,90,2013-02-16 11:55:00
5:15 AM,10.4,6.8,85,30.40,10.0,Calm,Calm,-,N/A,,Unknown,0,2013-02-16 12:15:00
5:55 AM,10.4,6.8,85,30.40,10.0,South,3.5,-,N/A,,Unknown,170,2013-02-16 12:55:00
6:35 AM,8.6,6.8,92,30.40,10.0,Calm,Calm,-,N/A,,Unknown,0,2013-02-16 13:35:00
6:50 AM,8.6,5.0,85,30.40,10.0,Calm,Calm,-,N/A,,Clear,0,2013-02-16 13:50:00
7:50 AM,10.4,6.8,85,30.41,10.0,Calm,Calm,-,N/A,,Clear,0,2013-02-16 14:50:00
9:50 AM,23.0,12.2,63,30.38,10.0,Calm,Calm,-,N/A,,Clear,0,2013-02-16 16:50:00
10:50 AM,24.8,14.0,64,30.36,10.0,Calm,Calm,-,N/A,,Partly Cloudy,0,2013-02-16 17:50:00
11:50 AM,28.4,17.6,64,30.32,10.0,Calm,Calm,-,N/A,,Clear,0,2013-02-16 18:50:00
12:50 PM,35.6,12.2,38,30.27,10.0,Calm,Calm,-,N/A,,Clear,0,2013-02-16 19:50:00
1:50 PM,41.0,12.2,31,30.22,10.0,Calm,Calm,-,N/A,,Clear,0,2013-02-16 20:50:00
2:50 PM,44.6,15.8,31,30.19,10.0,SW,13.8,-,N/A,,Clear,220,2013-02-16 21:50:00
3:50 PM,42.8,15.8,34,30.18,10.0,SW,18.4,-,N/A,,Clear,220,2013-02-16 22:50:00
4:50 PM,42.8,15.8,34,30.16,10.0,SSW,17.3,-,N/A,,Clear,210,2013-02-16 23:50:00
5:50 PM,37.4,15.8,41,30.17,10.0,WSW,12.7,-,N/A,,Clear,240,2013-02-17 00:50:00
6:55 PM,30.2,17.6,60,30.17,10.0,Calm,Calm,-,N/A,,Clear,0,2013-02-17 01:55:00
7:50 PM,28.4,17.6,64,30.17,10.0,ENE,8.1,-,N/A,,Clear,70,2013-02-17 02:50:00
8:50 PM,26.6,17.6,69,30.16,10.0,ENE,10.4,-,N/A,,Clear,60,2013-02-17 03:50:00
9:50 PM,24.8,15.8,69,30.16,10.0,East,5.8,-,N/A,,Clear,90,2013-02-17 04:50:00
10:50 PM,23.0,15.8,74,30.15,10.0,East,4.6,-,N/A,,Clear,100,2013-02-17 05:50:00
10:55 PM,21.2,15.8,80,30.14,10.0,ESE,4.6,-,N/A,,Unknown,110,2013-02-17 05:55:00
11:15 PM,21.2,15.8,80,30.14,10.0,SE,3.5,-,N/A,,Unknown,130,2013-02-17 06:15:00
11:35 PM,21.2,15.8,80,30.13,10.0,ENE,3.5,-,N/A,,Unknown,70,2013-02-17 06:35:00
11:55 PM,19.4,14.0,80,30.13,10.0,SSE,4.6,-,N/A,,Unknown,150,2013-02-17 06:55:00